www.pogodaiklimat.ru

Погода и климат >> Архив погоды >> Узбекистан >> Нукус


ПОГОДА в Нукусе

  • Прогноз погоды в Нукусе
  • Монитор погоды в Нукусе

АРХИВ ПОГОДЫ в Нукусе

Время (UTC), дата Ветер
(напр.,м/с)
 
Видим.   Явления Облачность Т
(С)
Тd
(С)
f
(%)
Тe
(С)
Тes
(С)
Комфортность P
(гПа)
Po
(гПа)
Тmin
(С)
Tmax
(С)
R
(мм)
R24
(мм)
S
(см)
12 14.08 З 7 20 км ясно +25.5 +0.4 19 +24 +26 комфорт 1011.7 1003.0
15 14.08 ЮЗ 1 20 км 1/0
[Ci fib]
+23.6 +4.5 29 +23 +23 комфорт 1011.7 1003.0 +25.8
18 14.08 Ю 2 20 км ясно +20.9 +4.5 34 +22 +22 комфорт 1011.8 1003.1 +25.8
21 14.08 ЮЗ 3 20 км ясно +19.2 +6.4 43 +20 +20 1012.0 1003.1
00 15.08 З 4 20 км ясно +17.0 +7.0 52 +17 +17 1012.0 1003.1
03 15.08 З 4 20 км ясно +17.4 +7.7 53 +17 +19 1013.6 1004.6
06 15.08 З 3 20 км 1/0
[Ci fib]
+23.8 +10.3 42 +25 +36 комфорт 1013.8 1005.0 +16.2
09 15.08 З 4 20 км 6/6 1500 м
[Cu med, cong]
+26.0 +11.0 39 +27 +31 жарко 1013.4 1004.7
12 15.08 З 4 20 км 8/8 1500 м
[Cu med, cong]
+27.0 +9.8 34 +27 +28 жарко 1012.5 1003.9
15 15.08 СЗ 2 20 км 4/4 1500 м
[Cu med, cong]
+26.1 +9.4 35 +27 +27 жарко 1012.9 1004.2 +27.2
18 15.08 С 3 20 км ясно +22.0 +10.5 48 +24 +24 комфорт 1014.2 1005.4 +27.2
21 15.08 С 2 20 км ясно +17.1 +10.2 64 +17 +17 1014.9 1005.9
00 16.08 С 1 20 км ясно +15.4 +10.0 70 +16 +16 1015.6 1006.6 +1.2
03 16.08 С 2 20 км ясно +18.4 +9.3 55 +19 +22 1016.9 1007.9
06 16.08 СВ 4 20 км ясно +25.5 +5.6 28 +25 +34 комфорт 1017.0 1008.3 +15.0
09 16.08 В 5 20 км ясно +28.6 +2.3 18 +26 +35 жарко 1015.8 1007.1
12 16.08 С 3 20 км ясно +30.4 +0.9 15 +28 +33 жарко 1014.2 1005.7
15 16.08 З 2 20 км 1/0
[Ci fib]
+26.3 +7.8 31 +26 +26 жарко 1014.4 1005.7 +30.7
18 16.08 С 1 20 км ясно +21.8 +8.4 42 +23 +23 комфорт 1014.7 1005.9 +30.7
21 16.08 СЗ 2 20 км ясно +19.3 +9.8 54 +21 +21 комфорт 1014.3 1005.5
00 17.08 штиль 0 20 км ясно +16.8 +9.3 61 +17 +17 1014.4 1005.4
03 17.08 С 3 20 км ясно +21.1 +9.3 47 +22 +24 комфорт 1014.7 1005.9
06 17.08 С 5 20 км ясно +29.3 +6.1 23 +28 +35 жарко 1014.5 1005.9 +16.5
09 17.08 С 6 20 км ясно +31.2 +7.1 22 +30 +36 жарко 1013.2 1004.7
12 17.08 С 7 20 км ясно +32.0 +6.2 20 +30 +32 жарко 1012.0 1003.5
15 17.08 СЗ 3 20 км ясно +29.1 +8.1 27 +29 +29 жарко 1012.3 1003.7 +32.3
18 17.08 СЗ 2 20 км ясно +24.0 +12.1 47 +26 +26 жарко 1013.0 1004.3 +32.3
21 17.08 С 2 20 км ясно +20.7 +10.4 52 +23 +23 комфорт 1013.3 1004.5
00 18.08 С 1 20 км ясно +18.5 +8.5 52 +20 +20 1014.1 1005.1
03 18.08 СВ 2 20 км ясно +21.9 +5.3 34 +22 +25 комфорт 1015.1 1006.3
06 18.08 СВ 5 20 км ясно +32.1 +3.2 16 +29 +36 жарко 1015.4 1006.9 +17.4
09 18.08 СВ 5 20 км ясно +34.0 +1.9 13 +31 +39 жарко 1015.1 1006.6
12 18.08 СЗ 6 20 км ясно +33.8 +3.8 15 +31 +33 жарко 1014.6 1006.1
15 18.08 С 4 20 км ясно +31.0 +6.8 22 +30 +30 жарко 1014.7 1006.2 +34.7
18 18.08 С 3 20 км ясно +25.8 +8.9 34 +26 +26 жарко 1015.7 1007.0 +34.7
21 18.08 СВ 3 20 км ясно +22.9 +4.8 31 +23 +23 комфорт 1016.3 1007.5
00 19.08 С 3 20 км ясно +19.9 +6.4 41 +21 +21 комфорт 1016.9 1008.1 +1.7
03 19.08 СВ 3 20 км ясно +24.3 +5.1 29 +24 +26 комфорт 1018.5 1009.7
06 19.08 С 6 20 км ясно +31.6 +3.6 17 +29 +34 жарко 1018.4 1009.9 +19.6
09 19.08 С 8 20 км ясно +34.0 +1.9 13 +31 +34 жарко 1017.5 1009.0
12 19.08 С 7 20 км ясно +34.6 +4.1 15 +32 +33 жарко 1016.6 1008.1
15 19.08 С 5 20 км ясно +30.5 +8.8 26 +30 +30 жарко 1016.8 1008.3 +35.4
18 19.08 С 3 20 км ясно +25.5 +8.2 33 +26 +26 жарко 1017.8 1009.1 +35.4
21 19.08 С 3 20 км ясно +23.0 +6.7 35 +24 +24 комфорт 1017.5 1008.7
00 20.08 С 4 20 км ясно +19.5 +6.8 44 +20 +20 1017.9 1009.1 +1.7
03 20.08 СВ 4 20 км ясно +23.4 +4.8 30 +23 +25 комфорт 1019.1 1010.3
06 20.08 СВ 5 20 км ясно +32.9 +2.9 15 +30 +37 жарко 1019.4 1010.9 +18.7
09 20.08 СВ 5 20 км ясно +36.3 +4.0 13 +33 +41 жарко 1018.1 1009.7
12 20.08 С 7 20 км ясно +36.4 +6.7 16 +34 +36 очень
жарко
1016.6 1008.2
15 20.08 С 4 20 км ясно +32.1 +10.2 26 +32 +32 жарко 1016.0 1007.5 +37.1
18 20.08 СЗ 3 20 км ясно +27.4 +10.6 35 +28 +28 жарко 1016.5 1007.7 +37.1
21 20.08 С 2 20 км ясно +23.8 +9.8 41 +25 +25 комфорт 1015.9 1007.1
00 21.08 С 2 20 км ясно +22.1 +9.3 44 +24 +24 комфорт 1015.3 1006.5
03 21.08 С 4 20 км ясно +24.9 +8.1 34 +25 +27 комфорт 1015.7 1007.0
06 21.08 С 5 20 км ясно +32.8 +9.8 24 +32 +39 жарко 1015.6 1007.1 +21.2

 

Местоположение метеостанции Нукус (Каракалпакстан, Узбекистан): широта 42.45 долгота 59.62 высота над уровнем моря 77 м.

В архиве по умолчанию представлена погода в Нукусе за последнюю неделю. Архивные данные за месяц целиком и за предыдущие месяцы, начиная с января 2011 года, Вы можете получить, выбрав интересующий диапазон дат из раскрывающегося списка и нажав кнопку "Ввод!".


*Определитесь, кто Вы:
робот инопланетянин человек

Внимание! Время в таблицах - всемирное. Для получения местного времени необходимо прибавить поправку, которая равна 5 ч.

Смотрите также архив погоды в соседних городах и на ближайших метеорологических станциях:

Погода в Тахтакупыре (Каракалпакстан, Узбекистан) (3 км)
Погода в Тахиаташе (Каракалпакстан, Узбекистан) (6 км)
Погода в Кенеургенче (Дашогузский велаят, Туркменистан) (44 км)
Погода в Чимбае (Каракалпакстан, Узбекистан) (58 км)
Погода в Дашогузе (Дашогузский велаят, Туркменистан) (80 км)
Погода в Кунграде (Каракалпакстан, Узбекистан) (90 км)
Погода в Гурлене (Хорезмская область, Узбекистан) (92 км)
Погода в Шах-Сенеме (Дашогузский велаят, Туркменистан) (122 км)
Погода в Ургенче (Хорезмская область, Узбекистан) (125 км)
Погода в Хиве (Хорезмская область, Узбекистан) (133 км)

Пояснения к столбцам:

Ветер - указаны скорость ветра в м/с - средняя за 10 мин, порывы в срок и между сроками (в фигурных скобках) и направление, откуда дует ветер: С - северный, СВ - северо-восточный, В - восточный, ЮВ - юго-восточный, Ю - южный, ЮЗ - юго-западный, З - западный, СЗ - северо-западный.
Видимость - горизонтальная дальность видимости в метрах или километрах. При видимости от 1 до 10 км при отсутствии осадков обычно наблюдается дымка, при ухудшении видимости до 1 км и менее - туман. В сухую погоду видимость может ухудшаться дымом, пылью или мглою.
Явления - указаны атмосферные явления, наблюдавшиеся в срок или в последний час перед сроком; фигурными скобками обозначены явления, наблюдавшиеся между сроками (за 1-3 часа до срока); квадратными скобками обозначены град или гололедные отложения с указанием их диаметра в мм.
Облачность - указаны через наклонную черту общая и нижняя облачность в баллах и высота нижней границы облаков в метрах; квадратными скобками обозначены формы облаков: Ci - перистые, Cs - перисто-слоистые, Cc - перисто-кучевые, Ac - высококучевые, As - высокослоистые, Sc - слоисто-кучевые, Ns - слоисто-дождевые, Cu - кучевые, Cb - кучево-дождевые. Подробнее классификацию облаков см. в Атласе облаков (PDF).
T - Температура воздуха - температура, измеренная на высоте 2 м над землей.
Td - Температура точки росы - температура, при понижении до которой содержащийся в воздухе водяной пар достигнет насыщения.
f - Относительная влажность воздуха - влажноcть воздуха, измеренная на высоте 2 м над землей.
Te - Эффективная температура - температура, которую ощущает одетый по сезону человек в тени. Характеристика душности погоды. При расчете учитывается влияние влажности воздуха и скорости ветра на теплоощущения человека.
Tes - Эффективная температура на солнце - температура, которую ощущает человек, с поправкой на солнечный нагрев. Характеристика знойности погоды. Зависит от высоты солнца над горизонтом, облачности и скорости ветра. Ночью, в пасмурную погоду, а также при ветре 12 м/с и более поправка равна нулю.
P - Атмосферное давление - приведенное к уровню моря атмосферное давление.
Po - Атмосферное давление - измеренное на уровне метеостанции атмосферное давление.
Tmin - Минимальная температура - минимум температуры воздуха на высоте 2 м над землей.
Tmax - Максимальная температура - максимум температуры воздуха на высоте 2 м над землей.
R - Количество осадков - Количество выпавших осадков за период времени, мм. При наведении курсора мыши на число - период времени, за который выпало указанное количество осадков.
R24 - Количество осадков - Количество выпавших осадков за 24 часа, мм.
S - Снежный покров - Высота снежного покрова, см. При наведении курсора мыши на число - состояние снежного покрова и степень покрытия местности в баллах.